Location: Karlsruhe
(49.0131°N, 8.3874°E)
Time: 06:59:24
(UTC+01:00)

ISS - Pass Details

Date: 05 January 2018
Orbit: 402 x 407 km, 51.6° (Epoch: 18 January)

Event Time Altitude Azimuth Distance (km) Brightness Sun altitude
Exits shadow 06:03:41 47° 39° (NE) 552 -3.1 -21.4°
Drops below altitude 10° 06:06:22 10° 71° (ENE) 1,495 -0.1 -20.9°
Sets 06:08:25 0° 75° (ENE) 2,334 1.1 -20.6°
